TimeCDT,TemperatureF,Dew PointF,Humidity,Sea Level PressureIn,VisibilityMPH,Wind Direction,Wind SpeedMPH,Gust SpeedMPH,PrecipitationIn,Events,Conditions,WindDirDegrees,DateUTC
12:15 AM,67.1,61.7,83,29.87,10.0,West,6.9,-,N/A,Rain,Light Rain,270,2013-07-20 05:15:00
12:35 AM,66.2,61.3,84,29.87,10.0,West,5.8,-,N/A,Rain,Light Rain,270,2013-07-20 05:35:00
12:55 AM,65.3,60.8,85,29.87,10.0,West,4.6,-,N/A,Rain,Light Rain,270,2013-07-20 05:55:00
1:15 AM,64.4,60.6,88,29.87,10.0,West,5.8,-,N/A,Rain,Light Rain,270,2013-07-20 06:15:00
1:35 AM,64.6,60.1,85,29.87,10.0,West,5.8,-,N/A,Rain,Light Rain,270,2013-07-20 06:35:00
1:55 AM,64.4,60.1,86,29.89,10.0,West,6.9,-,N/A,Rain,Light Rain,270,2013-07-20 06:55:00
2:15 AM,64.0,60.3,87,29.89,10.0,West,5.8,-,N/A,Rain,Light Rain,270,2013-07-20 07:15:00
2:35 AM,63.7,60.3,89,29.89,10.0,West,4.6,-,N/A,Rain,Light Rain,280,2013-07-20 07:35:00
2:55 AM,63.1,59.9,89,29.89,10.0,Calm,Calm,-,N/A,Rain,Light Rain,0,2013-07-20 07:55:00
3:15 AM,62.6,59.5,90,29.88,10.0,Calm,Calm,-,N/A,,Scattered Clouds,0,2013-07-20 08:15:00
3:35 AM,62.2,59.9,92,29.89,10.0,Calm,Calm,-,N/A,,Mostly Cloudy,0,2013-07-20 08:35:00
3:55 AM,62.6,59.9,91,29.89,10.0,Calm,Calm,-,N/A,,Overcast,0,2013-07-20 08:55:00
4:15 AM,62.2,59.9,92,29.89,10.0,Calm,Calm,-,N/A,,Mostly Cloudy,0,2013-07-20 09:15:00
4:35 AM,61.9,59.4,91,29.89,10.0,Calm,Calm,-,N/A,,Mostly Cloudy,0,2013-07-20 09:35:00
4:55 AM,60.6,58.6,93,29.89,10.0,Calm,Calm,-,N/A,,Scattered Clouds,0,2013-07-20 09:55:00
5:15 AM,59.9,58.1,94,29.91,10.0,Calm,Calm,-,N/A,,Scattered Clouds,0,2013-07-20 10:15:00
5:35 AM,59.7,57.7,93,29.91,10.0,Calm,Calm,-,N/A,,Scattered Clouds,0,2013-07-20 10:35:00
5:55 AM,59.2,57.6,94,29.91,10.0,North,3.5,-,N/A,,Mostly Cloudy,10,2013-07-20 10:55:00
6:15 AM,59.4,57.6,94,29.92,10.0,NNE,3.5,-,N/A,,Scattered Clouds,20,2013-07-20 11:15:00
6:35 AM,59.9,56.7,89,29.92,10.0,NNE,4.6,-,N/A,,Scattered Clouds,20,2013-07-20 11:35:00
6:55 AM,60.8,56.3,85,29.93,10.0,North,3.5,-,N/A,,Mostly Cloudy,10,2013-07-20 11:55:00
7:15 AM,61.5,56.1,82,29.93,10.0,NNE,4.6,-,N/A,,Scattered Clouds,20,2013-07-20 12:15:00
7:35 AM,62.1,56.1,81,29.94,10.0,NNE,5.8,-,N/A,,Scattered Clouds,20,2013-07-20 12:35:00
7:55 AM,62.6,54.7,75,29.96,10.0,NNE,3.5,-,N/A,,Scattered Clouds,20,2013-07-20 12:55:00
8:15 AM,63.1,53.4,71,29.96,10.0,NNE,4.6,-,N/A,,Overcast,30,2013-07-20 13:15:00
8:35 AM,63.9,52.9,67,29.96,10.0,NNE,6.9,-,N/A,,Scattered Clouds,30,2013-07-20 13:35:00
8:55 AM,65.5,53.1,64,29.97,10.0,NNE,8.1,-,N/A,,Scattered Clouds,30,2013-07-20 13:55:00
9:15 AM,66.4,53.2,63,29.98,10.0,NNE,4.6,-,N/A,,Clear,30,2013-07-20 14:15:00
9:35 AM,67.3,53.8,62,29.97,10.0,NE,6.9,-,N/A,,Clear,50,2013-07-20 14:35:00
9:55 AM,66.4,53.4,63,29.97,10.0,NE,3.5,-,N/A,,Mostly Cloudy,40,2013-07-20 14:55:00
10:15 AM,66.9,54.0,63,29.98,10.0,NNE,4.6,-,N/A,,Overcast,30,2013-07-20 15:15:00
10:35 AM,68.7,55.9,64,29.98,10.0,NE,6.9,-,N/A,,Mostly Cloudy,50,2013-07-20 15:35:00
10:55 AM,69.1,55.2,61,29.97,10.0,NE,8.1,-,N/A,,Scattered Clouds,40,2013-07-20 15:55:00
11:15 AM,70.0,54.7,58,29.96,10.0,NNE,8.1,-,N/A,,Clear,20,2013-07-20 16:15:00
11:35 AM,70.7,54.0,55,29.97,10.0,NE,5.8,-,N/A,,Clear,40,2013-07-20 16:35:00
11:55 AM,70.0,53.4,56,29.98,10.0,North,8.1,-,N/A,,Scattered Clouds,10,2013-07-20 16:55:00
12:15 PM,70.2,53.8,56,29.99,10.0,Calm,Calm,-,N/A,,Overcast,0,2013-07-20 17:15:00
12:35 PM,69.8,52.3,54,29.99,10.0,NNE,4.6,-,N/A,,Overcast,20,2013-07-20 17:35:00
12:55 PM,70.2,52.3,53,29.99,10.0,NE,5.8,-,N/A,,Overcast,50,2013-07-20 17:55:00
1:15 PM,70.7,52.0,51,29.99,10.0,NNE,9.2,-,N/A,,Mostly Cloudy,20,2013-07-20 18:15:00
1:35 PM,71.2,51.3,49,29.98,10.0,NNE,8.1,-,N/A,,Scattered Clouds,20,2013-07-20 18:35:00
1:55 PM,72.1,52.5,50,29.98,10.0,NE,8.1,-,N/A,,Clear,40,2013-07-20 18:55:00
2:15 PM,72.0,51.6,49,29.97,10.0,NNE,5.8,-,N/A,,Clear,20,2013-07-20 19:15:00
2:35 PM,73.0,53.8,51,29.96,10.0,NE,5.8,-,N/A,,Clear,40,2013-07-20 19:35:00
2:55 PM,71.8,53.6,53,29.96,10.0,NNE,6.9,-,N/A,,Clear,30,2013-07-20 19:55:00
3:15 PM,72.5,53.4,51,29.96,10.0,Calm,Calm,-,N/A,,Clear,0,2013-07-20 20:15:00
3:35 PM,73.2,52.9,49,29.95,10.0,NE,6.9,-,N/A,,Clear,40,2013-07-20 20:35:00
3:55 PM,74.3,54.0,49,29.94,10.0,NE,6.9,-,N/A,,Clear,40,2013-07-20 20:55:00
4:15 PM,75.2,55.0,49,29.94,10.0,NE,6.9,-,N/A,,Clear,40,2013-07-20 21:15:00
4:35 PM,73.6,54.0,50,29.95,10.0,NNE,3.5,-,N/A,,Mostly Cloudy,30,2013-07-20 21:35:00
4:55 PM,72.9,53.4,50,29.95,10.0,Calm,Calm,-,N/A,,Overcast,0,2013-07-20 21:55:00
5:15 PM,72.9,54.9,53,29.96,10.0,Calm,Calm,-,N/A,,Overcast,0,2013-07-20 22:15:00
5:35 PM,72.9,54.3,52,29.96,10.0,East,3.5,-,N/A,,Overcast,100,2013-07-20 22:35:00
5:55 PM,72.9,54.9,53,29.95,10.0,NE,4.6,-,N/A,,Overcast,50,2013-07-20 22:55:00
6:15 PM,72.5,54.5,53,29.95,10.0,NNE,3.5,-,N/A,,Overcast,20,2013-07-20 23:15:00
6:35 PM,72.3,54.3,53,29.95,10.0,Calm,Calm,-,N/A,,Mostly Cloudy,0,2013-07-20 23:35:00
6:55 PM,71.6,56.1,58,29.95,10.0,Calm,Calm,-,N/A,,Overcast,0,2013-07-20 23:55:00
7:15 PM,71.1,56.7,60,29.95,10.0,NE,3.5,-,N/A,,Overcast,40,2013-07-21 00:15:00
7:35 PM,70.7,55.6,59,29.95,10.0,NNE,4.6,-,N/A,,Overcast,30,2013-07-21 00:35:00
7:55 PM,69.8,55.8,61,29.95,10.0,NNE,3.5,-,N/A,,Overcast,30,2013-07-21 00:55:00
8:15 PM,69.1,55.0,61,29.95,10.0,NNE,4.6,-,N/A,,Overcast,30,2013-07-21 01:15:00
8:35 PM,68.5,55.6,63,29.95,10.0,NNE,5.8,-,N/A,,Overcast,30,2013-07-21 01:35:00
8:55 PM,68.0,55.4,64,29.95,10.0,NNE,5.8,-,N/A,,Overcast,30,2013-07-21 01:55:00
9:15 PM,67.3,53.6,61,29.95,10.0,NE,5.8,-,N/A,,Overcast,40,2013-07-21 02:15:00
9:35 PM,66.2,52.3,61,29.96,10.0,NE,6.9,-,N/A,,Scattered Clouds,40,2013-07-21 02:35:00
9:55 PM,64.8,51.8,63,29.96,10.0,NE,6.9,-,N/A,,Scattered Clouds,50,2013-07-21 02:55:00
10:15 PM,64.0,51.1,63,29.96,10.0,NE,6.9,-,N/A,,Scattered Clouds,50,2013-07-21 03:15:00
10:35 PM,64.0,51.8,64,29.98,10.0,East,4.6,-,N/A,,Scattered Clouds,80,2013-07-21 03:35:00
10:55 PM,63.7,51.8,65,29.98,10.0,East,8.1,-,N/A,,Scattered Clouds,90,2013-07-21 03:55:00
11:15 PM,63.1,51.1,65,29.99,10.0,East,6.9,-,N/A,,Mostly Cloudy,90,2013-07-21 04:15:00
11:35 PM,62.6,50.5,65,29.98,10.0,East,6.9,-,N/A,,Mostly Cloudy,90,2013-07-21 04:35:00
11:55 PM,62.1,50.0,65,30.00,10.0,Calm,Calm,-,N/A,,Scattered Clouds,0,2013-07-21 04:55:00